{"data":{"norad_id":58375,"epoch":"2026-09-20T03:45:26.414208Z","epoch_age_seconds":173228,"freshness":"STALE","line1":"1 58375U 23178B   26263.15655572  .00000594  00000+0  28717-4 0  9990","line2":"2 58375  53.1597 173.6543 0001038  74.7985 285.3132 15.34391810159656","mean_motion":15.3439181,"eccentricity":0.0001038,"inclination_deg":53.1597,"raan_deg":173.6543,"arg_perigee_deg":74.7985,"mean_anomaly_deg":285.3132,"bstar":2.8717e-5,"rev_number":15965,"period_min":93.84825900498,"perigee_km":462.01750097766,"apogee_km":463.43766446503,"semimajor_km":6840.8645827213,"source":"CELESTRAK","updated_at":"2026-09-21T09:00:33.864794Z"}}